Regional Weather Roundup
Issued by NWS

Home | Current Version | Previous Version | Text Only | Print | Product List | Glossary On
Versions: 1 2 3 4 5 6 7 8 9 10 11 12 13 14 15 16 17 18 19 20 21 22 23 24 25 26 27 28
000
ASUS44 KJAN 280120
RWRMS

MISSISSIPPI HOURLY WEATHER ROUNDUP
NATIONAL WEATHER SERVICE JACKSON MS
800 PM CDT SAT AUG 27 2016

NOTE: "FAIR: INDICATES FEW OR NO CLOUDS BELOW 12,000 FEET WITH NO
SIGNIFICANT WEATHER AND/OR OBSTRUCTIONS TO VISIBILITY.

MSZ001>002-007>008-010>013-018>021-025>028-034>036-280200-
NORTHWEST MISSISSIPPI

CITY           SKY/WX    TMP DP  RH WIND       PRES   REMARKS
CLARKSDALE     CLEAR     81  79  94 NE5       30.00R
GREENWOOD      CLEAR     79  74  84 CALM      29.98R
GREENVILLE     PTCLDY    83  73  72 E3        29.98R
OLIVE BRANCH   PTCLDY   N/A N/A N/A E5        30.03R
OXFORD         FAIR      81  73  78 NE5       30.03S
TUNICA         CLEAR     77  75  94 NE3       30.02R
$$

MSZ003>006-009-014>017-022>024-029>033-037>039-280200-
NORTHEAST MISSISSIPPI

CITY           SKY/WX    TMP DP  RH WIND       PRES   REMARKS
COLUMBUS AFB   CLEAR     82  75  81 E2        29.98R
CORINTH        FAIR      79  73  83 NE3       30.02S
GOLDN TRIANGLE CLEAR     86  66  51 E3        30.00R
TUPELO         CLEAR     83  70  64 N7        30.00R
$$

MSZ040-058-280200-
CENTRAL MISSISSIPPI

CITY           SKY/WX    TMP DP  RH WIND       PRES   REMARKS
JACKSON INTL   PTCLDY    82  75  79 E3        29.98R
JACKSON HAWKNS PTCLDY    83  71  67 CALM      29.98R
MERIDIAN KEY   CLEAR     87  68  52 E5        29.99R HX  90
MERIDIAN NAS   CLEAR     84  67  56 E5        29.99R
$$

MSZ059>079-280200-
SOUTH MISSISSIPPI

CITY           SKY/WX    TMP DP  RH WIND       PRES   REMARKS
BROOKHAVEN     FAIR     N/A N/A N/A CALM      30.00R
HATTIESBURG    CLEAR     83  74  74 S5        29.98R
MCCOMB         CLOUDY    82  73  74 CALM      29.97R
NATCHEZ        NOT AVBL
PINE BELT      CLEAR     79  57  47 CALM      30.00R
$$

MSZ080>082-280200-
COASTAL MISSISSIPPI

CITY           SKY/WX    TMP DP  RH WIND       PRES   REMARKS
BAY ST LOUIS   PTCLDY    81  73  78 SE3       29.97R
BILOXI         PTCLDY    80  79  98 N3        29.96R
PASCAGOULA     CLEAR     79  77  94 CALM      29.96R
GULFPORT       PTCLDY    82  78  88 SE9       29.96R HX  91
$$

LAZ007>009-015>016-023>026-280200-
NORTHEAST LOUISIANA

CITY           SKY/WX    TMP DP  RH WIND       PRES   REMARKS
BASTROP        FAIR      77  75  95 CALM      29.99R
TALLULAH/VBURG PTCLDY    82  76  81 N5        29.97R
$$




USA.gov is the U.S. government's official web portal to all federal, state and local government web resources and services.